| time (UTC) | temp C | wind direction | speed KPH | gust KPH | rain 1hr cm | rain 24hr cm | rain mn cm | humidity % | barometer mb |
| 20260508115527 | 7 | 358 | 6.4 | 16.1 | 0.00 | 0.00 | 0.00 | 60 | 1011.5 |
| 20260508115028 | 7 | 262 | 4.8 | 16.1 | 0.00 | 0.00 | 0.00 | 62 | 1011.6 |
| 20260508114539 | 7 | 27 | 3.2 | 11.3 | 0.00 | 0.00 | 0.00 | 60 | 1011.5 |
| 20260508114029 | 7 | 65 | 4.8 | 12.9 | 0.00 | 0.00 | 0.00 | 61 | 1011.4 |
| 20260508113529 | 7 | 313 | 3.2 | 12.9 | 0.00 | 0.00 | 0.00 | 60 | 1011.4 |
| 20260508113035 | 7 | 314 | 3.2 | 12.9 | 0.00 | 0.00 | 0.00 | 62 | 1011.4 |
| 20260508112528 | 7 | 259 | 1.6 | 11.3 | 0.00 | 0.00 | 0.00 | 62 | 1011.5 |
| 20260508112029 | 6 | 36 | 3.2 | 6.4 | 0.00 | 0.00 | 0.00 | 63 | 1011.4 |
| 20260508111541 | 6 | 39 | 1.6 | 6.4 | 0.00 | 0.00 | 0.00 | 67 | 1011.4 |
| 20260508111030 | 6 | 351 | 1.6 | 6.4 | 0.00 | 0.00 | 0.00 | 69 | 1011.5 |
| 20260508110529 | 5 | 89 | 0.0 | 1.6 | 0.00 | 0.00 | 0.00 | 73 | 1011.5 |
| 20260508110051 | 4 | 139 | 0.0 | 3.2 | 0.00 | 0.00 | 0.00 | 74 | 1011.3 |
| 20260508105528 | 3 | 0 | 0.0 | 3.2 | 0.00 | 0.00 | 0.00 | 77 | 1011.2 |
| 20260508105029 | 3 | 131 | 0.0 | 1.6 | 0.00 | 0.00 | 0.00 | 80 | 1011.3 |
| 20260508104542 | 2 | 0 | 0.0 | 0.0 | 0.00 | 0.00 | 0.00 | 84 | 1011.3 |
| 20260508104028 | 2 | 0 | 0.0 | 0.0 | 0.00 | 0.00 | 0.00 | 87 | 1011.2 |
| 20260508103528 | 2 | 0 | 0.0 | 0.0 | 0.00 | 0.00 | 0.00 | 90 | 1011.3 |
| 20260508103037 | 1 | 0 | 0.0 | 0.0 | 0.00 | 0.00 | 0.00 | 91 | 1011.3 |
| 20260508102528 | 1 | 0 | 0.0 | 0.0 | 0.00 | 0.00 | 0.00 | 91 | 1011.3 |
| 20260508102029 | 0 | 0 | 0.0 | 0.0 | 0.00 | 0.00 | 0.00 | 90 | 1011.3 |
| 20260508101538 | 0 | 0 | 0.0 | 0.0 | 0.00 | 0.00 | 0.00 | 89 | 1011.2 |
| 20260508101032 | 0 | 0 | 0.0 | 0.0 | 0.00 | 0.00 | 0.00 | 89 | 1011.1 |
| 20260508100529 | 0 | 0 | 0.0 | 0.0 | 0.00 | 0.00 | 0.00 | 88 | 1011.1 |
| 20260508100045 | 0 | 0 | 0.0 | 0.0 | 0.00 | 0.00 | 0.00 | 88 | 1011.1 |
| 20260508095531 | 1 | 0 | 0.0 | 0.0 | 0.00 | 0.00 | 0.00 | 88 | 1010.8 |
| 20260508095030 | 1 | 0 | 0.0 | 0.0 | 0.00 | 0.00 | 0.00 | 88 | 1010.8 |
| 20260508094547 | 1 | 0 | 0.0 | 0.0 | 0.00 | 0.00 | 0.00 | 88 | 1010.8 |
| 20260508094029 | 1 | 0 | 0.0 | 0.0 | 0.00 | 0.00 | 0.00 | 88 | 1010.6 |
| 20260508093528 | 1 | 0 | 0.0 | 0.0 | 0.00 | 0.00 | 0.00 | 88 | 1010.5 |
| 20260508093040 | 1 | 0 | 0.0 | 0.0 | 0.00 | 0.00 | 0.00 | 88 | 1010.4 |
| 20260508092528 | 2 | 0 | 0.0 | 0.0 | 0.00 | 0.00 | 0.00 | 87 | 1010.4 |
| 20260508092028 | 2 | 0 | 0.0 | 0.0 | 0.00 | 0.00 | 0.00 | 88 | 1010.4 |
| 20260508091541 | 2 | 0 | 0.0 | 0.0 | 0.00 | 0.00 | 0.00 | 87 | 1010.3 |
| 20260508091028 | 2 | 0 | 0.0 | 0.0 | 0.00 | 0.00 | 0.00 | 87 | 1010.2 |
| 20260508090529 | 2 | 0 | 0.0 | 1.6 | 0.00 | 0.00 | 0.00 | 87 | 1010.2 |
| 20260508090038 | 2 | 0 | 0.0 | 1.6 | 0.00 | 0.00 | 0.00 | 88 | 1010.3 |
| 20260508085527 | 2 | 224 | 0.0 | 0.0 | 0.00 | 0.00 | 0.00 | 88 | 1010.2 |
| 20260508085031 | 2 | 0 | 0.0 | 0.0 | 0.00 | 0.00 | 0.00 | 87 | 1010.0 |
| 20260508084543 | 2 | 0 | 0.0 | 0.0 | 0.00 | 0.00 | 0.00 | 87 | 1010.2 |
| 20260508084033 | 2 | 0 | 0.0 | 0.0 | 0.00 | 0.00 | 0.00 | 86 | 1010.3 |
| 20260508083528 | 2 | 0 | 0.0 | 0.0 | 0.00 | 0.00 | 0.00 | 86 | 1010.2 |
| 20260508083119 | 2 | 0 | 0.0 | 1.6 | 0.00 | 0.00 | 0.00 | 86 | 1010.1 |
| 20260508082528 | 2 | 0 | 0.0 | 1.6 | 0.00 | 0.00 | 0.00 | 86 | 1010.2 |
| 20260508082028 | 2 | 200 | 0.0 | 0.0 | 0.00 | 0.00 | 0.00 | 86 | 1010.4 |
| 20260508081552 | 2 | 199 | 0.0 | 0.0 | 0.00 | 0.00 | 0.00 | 85 | 1010.4 |
| 20260508081028 | 2 | 0 | 0.0 | 0.0 | 0.00 | 0.00 | 0.00 | 86 | 1010.4 |
| 20260508080528 | 2 | 0 | 0.0 | 0.0 | 0.00 | 0.00 | 0.00 | 84 | 1010.2 |
| 20260508080035 | 1 | 0 | 0.0 | 0.0 | 0.00 | 0.00 | 0.00 | 86 | 1010.2 |
| 20260508075528 | 1 | 0 | 0.0 | 0.0 | 0.00 | 0.00 | 0.00 | 87 | 1010.2 |
| 20260508075028 | 1 | 0 | 0.0 | 3.2 | 0.00 | 0.00 | 0.00 | 87 | 1010.1 |
| 20260508074539 | 1 | 0 | 0.0 | 3.2 | 0.00 | 0.00 | 0.00 | 88 | 1010.0 |
| 20260508074028 | 1 | 0 | 0.0 | 1.6 | 0.00 | 0.00 | 0.00 | 89 | 1010.0 |
| 20260508073529 | 1 | 0 | 0.0 | 0.0 | 0.00 | 0.00 | 0.00 | 88 | 1010.0 |
| 20260508073041 | 1 | 0 | 0.0 | 0.0 | 0.00 | 0.00 | 0.00 | 88 | 1010.0 |
| 20260508072528 | 1 | 0 | 0.0 | 0.0 | 0.00 | 0.00 | 0.00 | 88 | 1010.0 |
| 20260508072028 | 1 | 0 | 0.0 | 0.0 | 0.00 | 0.00 | 0.00 | 87 | 1010.0 |
| 20260508071544 | 1 | 0 | 0.0 | 0.0 | 0.00 | 0.00 | 0.00 | 87 | 1010.0 |
| 20260508071028 | 1 | 0 | 0.0 | 0.0 | 0.00 | 0.00 | 0.00 | 86 | 1009.9 |
| 20260508070531 | 1 | 0 | 0.0 | 0.0 | 0.00 | 0.00 | 0.00 | 86 | 1009.9 |
| 20260508070044 | 1 | 0 | 0.0 | 0.0 | 0.00 | 0.00 | 0.00 | 86 | 1009.9 |
| 20260508065525 | 1 | 0 | 0.0 | 0.0 | 0.00 | 0.00 | 0.00 | 86 | 1009.9 |
| 20260508065027 | 1 | 0 | 0.0 | 0.0 | 0.00 | 0.00 | 0.00 | 86 | 1009.8 |
| 20260508064601 | 1 | 0 | 0.0 | 0.0 | 0.00 | 0.00 | 0.00 | 85 | 1009.7 |
| 20260508064028 | 1 | 0 | 0.0 | 0.0 | 0.00 | 0.00 | 0.00 | 86 | 1009.6 |
| 20260508063528 | 1 | 0 | 0.0 | 0.0 | 0.00 | 0.00 | 0.00 | 84 | 1009.7 |
| 20260508063045 | 1 | 0 | 0.0 | 0.0 | 0.00 | 0.00 | 0.00 | 84 | 1009.6 |
| 20260508062524 | 1 | 0 | 0.0 | 0.0 | 0.00 | 0.00 | 0.00 | 83 | 1009.5 |
| 20260508062028 | 1 | 0 | 0.0 | 0.0 | 0.00 | 0.00 | 0.00 | 83 | 1009.5 |
| 20260508061543 | 1 | 0 | 0.0 | 0.0 | 0.00 | 0.00 | 0.00 | 84 | 1009.5 |
| 20260508061031 | 2 | 0 | 0.0 | 0.0 | 0.00 | 0.00 | 0.00 | 82 | 1009.5 |
| 20260508060529 | 2 | 0 | 0.0 | 0.0 | 0.00 | 0.00 | 0.00 | 82 | 1009.4 |
| 20260508060045 | 2 | 0 | 0.0 | 1.6 | 0.00 | 0.00 | 0.00 | 82 | 1009.4 |
| 20260508055528 | 2 | 0 | 0.0 | 1.6 | 0.00 | 0.00 | 0.00 | 81 | 1009.5 |
| 20260508055029 | 2 | 283 | 0.0 | 1.6 | 0.00 | 0.00 | 0.00 | 82 | 1009.3 |
| 20260508054540 | 2 | 0 | 0.0 | 1.6 | 0.00 | 0.00 | 0.00 | 81 | 1009.2 |
| 20260508054025 | 2 | 283 | 0.0 | 1.6 | 0.00 | 0.00 | 0.00 | 82 | 1009.3 |
| 20260508053526 | 2 | 0 | 0.0 | 3.2 | 0.00 | 0.00 | 0.00 | 82 | 1009.4 |
| 20260508053035 | 2 | 332 | 0.0 | 3.2 | 0.00 | 0.00 | 0.00 | 82 | 1009.4 |
| 20260508052527 | 2 | 321 | 0.0 | 1.6 | 0.00 | 0.00 | 0.00 | 81 | 1009.6 |
| 20260508052025 | 2 | 0 | 0.0 | 1.6 | 0.00 | 0.00 | 0.00 | 80 | 1009.6 |
| 20260508051538 | 3 | 0 | 0.0 | 1.6 | 0.00 | 0.00 | 0.00 | 79 | 1009.7 |
| 20260508051028 | 3 | 0 | 0.0 | 1.6 | 0.00 | 0.00 | 0.00 | 79 | 1009.7 |
| 20260508050529 | 3 | 295 | 0.0 | 1.6 | 0.00 | 0.00 | 0.00 | 78 | 1009.8 |
| 20260508050048 | 3 | 0 | 0.0 | 1.6 | 0.00 | 0.00 | 0.00 | 80 | 1009.9 |
| 20260508045528 | 3 | 0 | 0.0 | 1.6 | 0.00 | 0.00 | 0.00 | 80 | 1009.8 |
| 20260508045028 | 3 | 0 | 0.0 | 1.6 | 0.00 | 0.00 | 0.00 | 80 | 1009.8 |
| 20260508044543 | 3 | 0 | 0.0 | 1.6 | 0.00 | 0.00 | 0.00 | 79 | 1009.6 |
| 20260508044031 | 3 | 284 | 0.0 | 1.6 | 0.00 | 0.00 | 0.00 | 78 | 1009.6 |
| 20260508043533 | 3 | 0 | 0.0 | 1.6 | 0.00 | 0.00 | 0.00 | 78 | 1009.6 |
| 20260508043041 | 3 | 0 | 0.0 | 1.6 | 0.00 | 0.00 | 0.00 | 78 | 1009.8 |
| 20260508042529 | 3 | 0 | 0.0 | 0.0 | 0.00 | 0.00 | 0.00 | 78 | 1009.7 |
| 20260508042030 | 3 | 0 | 0.0 | 0.0 | 0.00 | 0.00 | 0.00 | 78 | 1009.9 |
| 20260508041548 | 3 | 0 | 0.0 | 1.6 | 0.00 | 0.00 | 0.00 | 78 | 1010.0 |
| 20260508041030 | 3 | 0 | 0.0 | 1.6 | 0.00 | 0.00 | 0.00 | 78 | 1010.0 |
| 20260508040529 | 3 | 300 | 0.0 | 1.6 | 0.00 | 0.00 | 0.00 | 79 | 1010.0 |
| 20260508040048 | 3 | 0 | 0.0 | 0.0 | 0.00 | 0.00 | 0.00 | 79 | 1010.2 |
| 20260508035531 | 3 | 0 | 0.0 | 0.0 | 0.00 | 0.00 | 0.00 | 79 | 1010.1 |
| 20260508035032 | 3 | 0 | 0.0 | 0.0 | 0.00 | 0.00 | 0.00 | 79 | 1010.0 |
| 20260508034544 | 3 | 0 | 0.0 | 0.0 | 0.00 | 0.00 | 0.00 | 78 | 1010.0 |
| 20260508034031 | 3 | 0 | 0.0 | 0.0 | 0.00 | 0.00 | 0.00 | 77 | 1010.0 |
| 20260508033531 | 4 | 0 | 0.0 | 0.0 | 0.00 | 0.00 | 0.00 | 76 | 1010.0 |
| 20260508033045 | 4 | 0 | 0.0 | 0.0 | 0.00 | 0.00 | 0.00 | 75 | 1010.0 |
| 20260508032531 | 4 | 0 | 0.0 | 0.0 | 0.00 | 0.00 | 0.00 | 74 | 1010.1 |
| 20260508032031 | 4 | 0 | 0.0 | 0.0 | 0.00 | 0.00 | 0.00 | 74 | 1010.0 |
| 20260508031541 | 5 | 0 | 0.0 | 0.0 | 0.00 | 0.00 | 0.00 | 73 | 1010.1 |
| 20260508031030 | 5 | 0 | 0.0 | 0.0 | 0.00 | 0.00 | 0.00 | 73 | 1010.1 |
| 20260508030530 | 5 | 0 | 0.0 | 0.0 | 0.00 | 0.00 | 0.00 | 73 | 1010.1 |
| 20260508030037 | 5 | 0 | 0.0 | 0.0 | 0.00 | 0.00 | 0.00 | 73 | 1010.2 |
| 20260508025530 | 5 | 0 | 0.0 | 0.0 | 0.00 | 0.00 | 0.00 | 75 | 1010.0 |
| 20260508025033 | 5 | 0 | 0.0 | 0.0 | 0.00 | 0.00 | 0.00 | 75 | 1010.0 |
| 20260508024541 | 6 | 0 | 0.0 | 0.0 | 0.00 | 0.00 | 0.00 | 73 | 1009.9 |
| 20260508024030 | 6 | 0 | 0.0 | 0.0 | 0.00 | 0.00 | 0.00 | 72 | 1010.0 |
| 20260508023530 | 5 | 0 | 0.0 | 0.0 | 0.00 | 0.00 | 0.00 | 71 | 1010.0 |
| 20260508023042 | 6 | 0 | 0.0 | 0.0 | 0.00 | 0.00 | 0.00 | 71 | 1010.0 |
| 20260508022529 | 6 | 0 | 0.0 | 0.0 | 0.00 | 0.00 | 0.00 | 71 | 1009.9 |
| 20260508022031 | 6 | 0 | 0.0 | 0.0 | 0.00 | 0.00 | 0.00 | 70 | 1009.9 |
| 20260508021541 | 6 | 0 | 0.0 | 0.0 | 0.00 | 0.00 | 0.00 | 70 | 1009.8 |
| 20260508021032 | 6 | 0 | 0.0 | 0.0 | 0.00 | 0.00 | 0.00 | 70 | 1009.8 |
| 20260508020529 | 6 | 0 | 0.0 | 1.6 | 0.00 | 0.00 | 0.00 | 67 | 1009.8 |
| 20260508020047 | 6 | 0 | 0.0 | 1.6 | 0.00 | 0.00 | 0.00 | 65 | 1009.6 |
| 20260508015530 | 6 | 0 | 0.0 | 0.0 | 0.00 | 0.03 | 0.00 | 64 | 1009.9 |
| 20260508015030 | 6 | 0 | 0.0 | 0.0 | 0.00 | 0.03 | 0.00 | 63 | 1009.8 |
| 20260508014542 | 7 | 0 | 0.0 | 0.0 | 0.00 | 0.03 | 0.00 | 64 | 1009.8 |
| 20260508014030 | 7 | 0 | 0.0 | 0.0 | 0.00 | 0.03 | 0.00 | 62 | 1009.9 |
| 20260508013530 | 7 | 0 | 0.0 | 0.0 | 0.00 | 0.03 | 0.00 | 62 | 1009.9 |
| 20260508013041 | 7 | 0 | 0.0 | 0.0 | 0.00 | 0.03 | 0.00 | 61 | 1010.0 |
| 20260508012530 | 7 | 0 | 0.0 | 1.6 | 0.00 | 0.03 | 0.00 | 60 | 1009.8 |
| 20260508012028 | 8 | 0 | 0.0 | 1.6 | 0.00 | 0.03 | 0.00 | 57 | 1009.6 |
| 20260508011549 | 8 | 0 | 0.0 | 1.6 | 0.00 | 0.03 | 0.00 | 55 | 1009.6 |
| 20260508011028 | 8 | 0 | 0.0 | 1.6 | 0.00 | 0.03 | 0.00 | 56 | 1009.5 |
| 20260508010525 | 8 | 0 | 0.0 | 1.6 | 0.00 | 0.03 | 0.00 | 56 | 1009.6 |
| 20260508010056 | 8 | 0 | 0.0 | 1.6 | 0.00 | 0.03 | 0.00 | 54 | 1009.3 |
| 20260508005532 | 8 | 0 | 0.0 | 1.6 | 0.00 | 0.15 | 0.00 | 52 | 1009.2 |
| 20260508005025 | 9 | 0 | 0.0 | 1.6 | 0.00 | 0.15 | 0.00 | 51 | 1009.2 |
| 20260508004555 | 10 | 0 | 0.0 | 4.8 | 0.00 | 0.15 | 0.00 | 48 | 1009.1 |
| 20260508004030 | 10 | 0 | 0.0 | 4.8 | 0.00 | 0.15 | 0.00 | 46 | 1009.1 |
| 20260508003524 | 10 | 0 | 0.0 | 9.7 | 0.00 | 0.15 | 0.00 | 45 | 1009.0 |
| 20260508003045 | 10 | 289 | 1.6 | 9.7 | 0.00 | 0.15 | 0.00 | 46 | 1008.9 |
| 20260508002525 | 10 | 21 | 1.6 | 9.7 | 0.00 | 0.15 | 0.00 | 45 | 1008.9 |
| 20260508002029 | 10 | 11 | 0.0 | 6.4 | 0.00 | 0.15 | 0.00 | 45 | 1008.8 |
| 20260508001545 | 10 | 0 | 1.6 | 6.4 | 0.00 | 0.15 | 0.00 | 44 | 1008.9 |
| 20260508001028 | 11 | 0 | 0.0 | 3.2 | 0.00 | 0.15 | 0.00 | 44 | 1008.8 |
| 20260508000533 | 11 | 0 | 0.0 | 6.4 | 0.00 | 0.15 | 0.00 | 42 | 1008.8 |
| 20260508000040 | 11 | 338 | 1.6 | 9.7 | 0.00 | 0.15 | 0.00 | 42 | 1008.9 |
| 20260507235527 | 11 | 301 | 1.6 | 9.7 | 0.00 | 0.15 | 0.00 | 42 | 1008.7 |
| 20260507235029 | 11 | 293 | 1.6 | 9.7 | 0.00 | 0.15 | 0.00 | 42 | 1008.7 |
| 20260507234535 | 11 | 266 | 3.2 | 9.7 | 0.00 | 0.15 | 0.00 | 40 | 1008.8 |
| 20260507234025 | 12 | 336 | 3.2 | 11.3 | 0.00 | 0.15 | 0.00 | 39 | 1008.6 |
| 20260507233528 | 12 | 44 | 4.8 | 12.9 | 0.00 | 0.15 | 0.00 | 39 | 1008.5 |
| 20260507233044 | 12 | 347 | 4.8 | 12.9 | 0.00 | 0.15 | 0.00 | 38 | 1008.5 |
| 20260507232525 | 12 | 309 | 3.2 | 12.9 | 0.00 | 0.15 | 0.00 | 38 | 1008.5 |
| 20260507232024 | 12 | 302 | 4.8 | 12.9 | 0.00 | 0.15 | 0.00 | 38 | 1008.5 |
| 20260507231540 | 12 | 343 | 3.2 | 12.9 | 0.00 | 0.15 | 0.00 | 38 | 1008.5 |
| 20260507231027 | 12 | 236 | 3.2 | 12.9 | 0.00 | 0.15 | 0.00 | 39 | 1008.5 |
| 20260507230530 | 12 | 253 | 1.6 | 12.9 | 0.00 | 0.15 | 0.00 | 38 | 1008.4 |
| 20260507230044 | 13 | 292 | 6.4 | 17.7 | 0.00 | 0.15 | 0.00 | 37 | 1008.5 |
| 20260507225525 | 13 | 285 | 6.4 | 19.3 | 0.00 | 0.18 | 0.00 | 36 | 1008.3 |
| 20260507225027 | 13 | 5 | 8.0 | 24.1 | 0.00 | 0.18 | 0.00 | 36 | 1008.3 |
| 20260507224557 | 13 | 341 | 9.7 | 29.0 | 0.00 | 0.18 | 0.00 | 36 | 1008.3 |
| 20260507224026 | 13 | 265 | 9.7 | 29.0 | 0.00 | 0.18 | 0.00 | 36 | 1008.5 |
| 20260507223528 | 13 | 342 | 4.8 | 19.3 | 0.00 | 0.18 | 0.00 | 36 | 1008.3 |
| 20260507223040 | 13 | 345 | 8.0 | 17.7 | 0.00 | 0.18 | 0.00 | 37 | 1008.3 |
| 20260507222530 | 14 | 297 | 8.0 | 20.9 | 0.00 | 0.18 | 0.00 | 37 | 1008.3 |
| 20260507222030 | 14 | 283 | 6.4 | 20.9 | 0.00 | 0.18 | 0.00 | 37 | 1008.2 |
| 20260507221538 | 14 | 325 | 4.8 | 19.3 | 0.00 | 0.18 | 0.00 | 36 | 1008.1 |
| 20260507221029 | 14 | 354 | 6.4 | 19.3 | 0.00 | 0.18 | 0.00 | 38 | 1008.1 |
| 20260507220529 | 14 | 18 | 8.0 | 19.3 | 0.00 | 0.18 | 0.00 | 37 | 1008.3 |
| 20260507220044 | 14 | 322 | 9.7 | 24.1 | 0.00 | 0.18 | 0.00 | 37 | 1008.3 |
| 20260507215530 | 14 | 302 | 11.3 | 24.1 | 0.00 | 0.33 | 0.00 | 37 | 1008.1 |
| 20260507215031 | 14 | 301 | 8.0 | 22.5 | 0.00 | 0.33 | 0.00 | 40 | 1008.3 |
| 20260507214542 | 14 | 341 | 6.4 | 29.0 | 0.00 | 0.33 | 0.00 | 40 | 1008.1 |
| 20260507214029 | 14 | 328 | 8.0 | 29.0 | 0.00 | 0.33 | 0.00 | 37 | 1008.2 |
| 20260507213530 | 15 | 294 | 12.9 | 29.0 | 0.00 | 0.33 | 0.00 | 38 | 1008.1 |
| 20260507213054 | 15 | 290 | 6.4 | 19.3 | 0.00 | 0.33 | 0.00 | 39 | 1008.1 |
| 20260507212530 | 15 | 264 | 9.7 | 24.1 | 0.00 | 0.33 | 0.00 | 36 | 1008.0 |
| 20260507212030 | 15 | 308 | 8.0 | 27.4 | 0.00 | 0.33 | 0.00 | 39 | 1007.9 |
| 20260507211544 | 14 | 16 | 11.3 | 27.4 | 0.00 | 0.33 | 0.00 | 39 | 1008.0 |
| 20260507211030 | 15 | 315 | 8.0 | 38.6 | 0.00 | 0.33 | 0.00 | 39 | 1008.0 |
| 20260507210530 | 15 | 323 | 6.4 | 38.6 | 0.00 | 0.33 | 0.00 | 39 | 1008.0 |
| 20260507210040 | 14 | 311 | 8.0 | 29.0 | 0.00 | 0.33 | 0.00 | 37 | 1007.8 |
| 20260507205530 | 15 | 261 | 9.7 | 24.1 | 0.00 | 0.41 | 0.00 | 39 | 1007.7 |
| 20260507205033 | 14 | 335 | 11.3 | 24.1 | 0.00 | 0.41 | 0.00 | 37 | 1007.8 |
| 20260507204548 | 15 | 343 | 11.3 | 20.9 | 0.00 | 0.41 | 0.00 | 40 | 1007.8 |
| 20260507204030 | 15 | 279 | 6.4 | 20.9 | 0.00 | 0.41 | 0.00 | 39 | 1007.9 |
| 20260507203530 | 14 | 352 | 8.0 | 20.9 | 0.00 | 0.41 | 0.00 | 38 | 1007.9 |
| 20260507203044 | 14 | 356 | 8.0 | 22.5 | 0.00 | 0.41 | 0.00 | 42 | 1008.0 |
| 20260507202529 | 14 | 325 | 8.0 | 29.0 | 0.00 | 0.41 | 0.00 | 40 | 1008.1 |
| 20260507202029 | 14 | 317 | 6.4 | 29.0 | 0.00 | 0.41 | 0.00 | 41 | 1007.9 |
| 20260507201544 | 14 | 303 | 12.9 | 29.0 | 0.00 | 0.41 | 0.00 | 38 | 1007.9 |
| 20260507201030 | 15 | 311 | 8.0 | 29.0 | 0.00 | 0.41 | 0.00 | 37 | 1007.9 |
| 20260507200530 | 14 | 302 | 12.9 | 29.0 | 0.00 | 0.41 | 0.00 | 40 | 1008.1 |
| 20260507200042 | 14 | 319 | 6.4 | 22.5 | 0.00 | 0.41 | 0.00 | 41 | 1008.1 |
| 20260507195530 | 14 | 318 | 8.0 | 22.5 | 0.00 | 0.48 | 0.00 | 39 | 1008.1 |
| 20260507195030 | 14 | 340 | 12.9 | 22.5 | 0.00 | 0.48 | 0.00 | 39 | 1008.1 |
| 20260507194539 | 15 | 335 | 9.7 | 35.4 | 0.00 | 0.48 | 0.00 | 40 | 1008.1 |
| 20260507194029 | 15 | 173 | 9.7 | 35.4 | 0.00 | 0.48 | 0.00 | 43 | 1008.0 |
| 20260507193532 | 15 | 154 | 11.3 | 35.4 | 0.00 | 0.48 | 0.00 | 39 | 1008.0 |
| 20260507193038 | 15 | 8 | 8.0 | 20.9 | 0.00 | 0.48 | 0.00 | 41 | 1008.0 |
| 20260507192529 | 15 | 295 | 8.0 | 24.1 | 0.00 | 0.48 | 0.00 | 42 | 1008.2 |
| 20260507192030 | 15 | 309 | 9.7 | 24.1 | 0.00 | 0.48 | 0.00 | 39 | 1008.2 |
| 20260507191545 | 15 | 244 | 9.7 | 20.9 | 0.00 | 0.48 | 0.00 | 41 | 1008.1 |
| 20260507191029 | 15 | 15 | 8.0 | 20.9 | 0.00 | 0.48 | 0.00 | 42 | 1008.2 |
| 20260507190530 | 14 | 342 | 11.3 | 20.9 | 0.00 | 0.48 | 0.00 | 43 | 1008.4 |
| 20260507190045 | 13 | 293 | 6.4 | 19.3 | 0.00 | 0.48 | 0.00 | 45 | 1008.4 |
| 20260507185530 | 13 | 315 | 3.2 | 11.3 | 0.00 | 0.58 | 0.00 | 45 | 1008.4 |
| 20260507185030 | 13 | 293 | 4.8 | 19.3 | 0.00 | 0.58 | 0.00 | 45 | 1008.5 |
| 20260507184541 | 13 | 295 | 4.8 | 19.3 | 0.00 | 0.58 | 0.00 | 43 | 1008.5 |
| 20260507184032 | 13 | 305 | 9.7 | 19.3 | 0.00 | 0.58 | 0.00 | 41 | 1008.5 |
| 20260507183534 | 14 | 349 | 8.0 | 17.7 | 0.00 | 0.58 | 0.00 | 41 | 1008.5 |
| 20260507183045 | 15 | 285 | 4.8 | 24.1 | 0.00 | 0.58 | 0.00 | 43 | 1008.7 |
| 20260507182529 | 15 | 263 | 6.4 | 24.1 | 0.00 | 0.58 | 0.00 | 41 | 1008.5 |
| 20260507182030 | 15 | 6 | 8.0 | 19.3 | 0.00 | 0.58 | 0.00 | 42 | 1008.6 |
| 20260507181542 | 14 | 324 | 8.0 | 19.3 | 0.00 | 0.58 | 0.00 | 43 | 1008.6 |
| 20260507181030 | 15 | 309 | 4.8 | 12.9 | 0.00 | 0.58 | 0.00 | 44 | 1008.6 |
| 20260507180530 | 15 | 348 | 4.8 | 17.7 | 0.00 | 0.58 | 0.00 | 40 | 1008.7 |
| 20260507180053 | 15 | 341 | 6.4 | 17.7 | 0.00 | 0.58 | 0.00 | 42 | 1008.7 |
| 20260507175530 | 14 | 327 | 8.0 | 17.7 | 0.00 | 0.74 | 0.00 | 41 | 1008.7 |
| 20260507175030 | 14 | 343 | 8.0 | 17.7 | 0.00 | 0.74 | 0.00 | 42 | 1008.8 |
| 20260507174546 | 14 | 8 | 9.7 | 17.7 | 0.00 | 0.74 | 0.00 | 40 | 1008.8 |
| 20260507174029 | 15 | 323 | 8.0 | 24.1 | 0.00 | 0.74 | 0.00 | 46 | 1008.8 |
| 20260507173529 | 15 | 309 | 8.0 | 24.1 | 0.00 | 0.74 | 0.00 | 42 | 1008.7 |
| 20260507173051 | 14 | 250 | 4.8 | 20.9 | 0.00 | 0.74 | 0.00 | 40 | 1008.7 |
| 20260507172529 | 15 | 328 | 9.7 | 20.9 | 0.00 | 0.74 | 0.00 | 43 | 1008.6 |
| 20260507172030 | 15 | 72 | 6.4 | 17.7 | 0.00 | 0.74 | 0.00 | 40 | 1008.9 |
| 20260507171544 | 15 | 290 | 6.4 | 17.7 | 0.00 | 0.74 | 0.00 | 42 | 1008.7 |
| 20260507171029 | 15 | 12 | 6.4 | 19.3 | 0.00 | 0.74 | 0.00 | 42 | 1008.8 |
| 20260507170530 | 15 | 354 | 6.4 | 19.3 | 0.00 | 0.74 | 0.00 | 39 | 1008.9 |
| 20260507170043 | 14 | 352 | 6.4 | 19.3 | 0.00 | 0.74 | 0.00 | 40 | 1008.8 |
| 20260507165530 | 14 | 328 | 6.4 | 27.4 | 0.00 | 0.74 | 0.00 | 41 | 1009.0 |
| 20260507165035 | 14 | 8 | 11.3 | 27.4 | 0.00 | 0.74 | 0.00 | 41 | 1009.0 |
| 20260507164554 | 14 | 351 | 9.7 | 22.5 | 0.00 | 0.74 | 0.00 | 42 | 1009.1 |
| 20260507164033 | 14 | 32 | 4.8 | 20.9 | 0.00 | 0.74 | 0.00 | 43 | 1009.1 |
| 20260507163529 | 14 | 34 | 6.4 | 16.1 | 0.00 | 0.74 | 0.00 | 44 | 1009.2 |
| 20260507163048 | 14 | 323 | 8.0 | 20.9 | 0.00 | 0.74 | 0.00 | 44 | 1009.4 |
| 20260507162530 | 14 | 335 | 6.4 | 20.9 | 0.00 | 0.74 | 0.00 | 43 | 1009.6 |
| 20260507162030 | 13 | 290 | 9.7 | 20.9 | 0.00 | 0.74 | 0.00 | 41 | 1009.6 |
| 20260507161545 | 13 | 217 | 6.4 | 29.0 | 0.00 | 0.74 | 0.00 | 44 | 1009.7 |
| 20260507161029 | 13 | 283 | 9.7 | 29.0 | 0.00 | 0.74 | 0.00 | 41 | 1009.7 |
| 20260507160533 | 13 | 359 | 11.3 | 29.0 | 0.00 | 0.74 | 0.00 | 42 | 1010.0 |
| 20260507160059 | 13 | 325 | 4.8 | 11.3 | 0.00 | 0.74 | 0.00 | 53 | 1009.9 |
| 20260507155529 | 13 | 69 | 4.8 | 16.1 | 0.00 | 0.74 | 0.00 | 45 | 1010.0 |
| 20260507155029 | 13 | 345 | 6.4 | 16.1 | 0.00 | 0.74 | 0.00 | 47 | 1009.9 |
| 20260507154544 | 13 | 20 | 6.4 | 17.7 | 0.00 | 0.74 | 0.00 | 43 | 1010.0 |
| 20260507154030 | 13 | 241 | 6.4 | 19.3 | 0.00 | 0.74 | 0.00 | 43 | 1009.9 |
| 20260507153529 | 13 | 324 | 4.8 | 19.3 | 0.00 | 0.74 | 0.00 | 49 | 1010.1 |
| 20260507153049 | 13 | 10 | 9.7 | 19.3 | 0.00 | 0.74 | 0.00 | 47 | 1010.1 |
| 20260507152529 | 13 | 346 | 6.4 | 22.5 | 0.00 | 0.74 | 0.00 | 44 | 1009.9 |
| 20260507152030 | 13 | 311 | 8.0 | 22.5 | 0.00 | 0.74 | 0.00 | 45 | 1010.1 |
| 20260507151539 | 12 | 332 | 8.0 | 22.5 | 0.00 | 0.74 | 0.00 | 44 | 1010.1 |
| 20260507151030 | 12 | 293 | 8.0 | 22.5 | 0.00 | 0.74 | 0.00 | 47 | 1010.2 |
| 20260507150533 | 12 | 8 | 9.7 | 22.5 | 0.00 | 0.74 | 0.00 | 44 | 1010.2 |
| 20260507150047 | 12 | 350 | 8.0 | 25.7 | 0.00 | 0.74 | 0.00 | 45 | 1010.3 |
| 20260507145532 | 12 | 301 | 11.3 | 25.7 | 0.00 | 0.74 | 0.00 | 43 | 1010.3 |
| 20260507145029 | 12 | 359 | 9.7 | 20.9 | 0.00 | 0.74 | 0.00 | 46 | 1010.4 |
| 20260507144550 | 12 | 326 | 6.4 | 22.5 | 0.00 | 0.74 | 0.00 | 48 | 1010.5 |
| 20260507144030 | 12 | 309 | 12.9 | 22.5 | 0.00 | 0.74 | 0.00 | 42 | 1010.5 |
| 20260507143532 | 12 | 331 | 8.0 | 22.5 | 0.00 | 0.74 | 0.00 | 48 | 1010.6 |
| 20260507143042 | 12 | 329 | 8.0 | 22.5 | 0.00 | 0.74 | 0.00 | 43 | 1010.6 |
| 20260507142530 | 12 | 284 | 11.3 | 27.4 | 0.00 | 0.74 | 0.00 | 45 | 1010.6 |
| 20260507142029 | 12 | 354 | 8.0 | 27.4 | 0.00 | 0.74 | 0.00 | 48 | 1010.5 |
| 20260507141542 | 12 | 304 | 12.9 | 25.7 | 0.00 | 0.74 | 0.00 | 43 | 1010.4 |
| 20260507141033 | 12 | 23 | 6.4 | 16.1 | 0.00 | 0.74 | 0.00 | 44 | 1010.4 |
| 20260507140530 | 12 | 314 | 4.8 | 24.1 | 0.00 | 0.74 | 0.00 | 46 | 1010.4 |
| 20260507140104 | 12 | 271 | 6.4 | 24.1 | 0.00 | 0.74 | 0.00 | 47 | 1010.4 |
| 20260507135530 | 12 | 356 | 3.2 | 14.5 | 0.00 | 0.74 | 0.00 | 54 | 1010.2 |
| 20260507135030 | 12 | 159 | 4.8 | 16.1 | 0.00 | 0.74 | 0.00 | 46 | 1010.2 |
| 20260507134541 | 11 | 249 | 9.7 | 19.3 | 0.00 | 0.74 | 0.00 | 46 | 1010.2 |
| 20260507134030 | 12 | 342 | 4.8 | 19.3 | 0.00 | 0.74 | 0.00 | 48 | 1010.2 |
| 20260507133530 | 11 | 296 | 4.8 | 16.1 | 0.00 | 0.74 | 0.00 | 51 | 1010.2 |
| 20260507133048 | 11 | 347 | 8.0 | 16.1 | 0.00 | 0.74 | 0.00 | 50 | 1010.1 |
| 20260507132529 | 11 | 358 | 3.2 | 22.5 | 0.00 | 0.74 | 0.00 | 49 | 1010.2 |
| 20260507132029 | 11 | 274 | 9.7 | 22.5 | 0.00 | 0.74 | 0.00 | 49 | 1010.2 |
| 20260507131552 | 11 | 336 | 4.8 | 16.1 | 0.00 | 0.74 | 0.00 | 49 | 1010.2 |
| 20260507131031 | 11 | 313 | 8.0 | 16.1 | 0.00 | 0.74 | 0.00 | 51 | 1010.1 |
| 20260507130534 | 11 | 297 | 3.2 | 24.1 | 0.00 | 0.74 | 0.00 | 55 | 1009.9 |
| 20260507130051 | 11 | 316 | 6.4 | 24.1 | 0.00 | 0.74 | 0.00 | 56 | 1010.2 |
| 20260507125534 | 11 | 350 | 4.8 | 14.5 | 0.00 | 0.74 | 0.00 | 55 | 1010.1 |
| 20260507125030 | 11 | 340 | 4.8 | 16.1 | 0.00 | 0.74 | 0.00 | 56 | 1010.0 |
| 20260507124552 | 10 | 297 | 4.8 | 16.1 | 0.00 | 0.74 | 0.00 | 56 | 1010.0 |
| 20260507124029 | 10 | 236 | 9.7 | 19.3 | 0.00 | 0.74 | 0.00 | 55 | 1010.1 |
| 20260507123531 | 10 | 295 | 8.0 | 22.5 | 0.00 | 0.74 | 0.00 | 59 | 1010.1 |
| 20260507123053 | 10 | 89 | 6.4 | 22.5 | 0.00 | 0.74 | 0.00 | 59 | 1010.2 |
| 20260507122533 | 10 | 340 | 6.4 | 20.9 | 0.00 | 0.74 | 0.00 | 58 | 1010.2 |
| 20260507122030 | 10 | 252 | 6.4 | 20.9 | 0.00 | 0.74 | 0.00 | 59 | 1010.2 |
| 20260507121542 | 10 | 284 | 8.0 | 20.9 | 0.00 | 0.74 | 0.00 | 59 | 1010.3 |
| 20260507121029 | 10 | 284 | 6.4 | 17.7 | 0.00 | 0.74 | 0.00 | 64 | 1010.2 |
| 20260507120530 | 10 | 281 | 4.8 | 17.7 | 0.00 | 0.74 | 0.00 | 64 | 1010.1 |
| 20260507120048 | 10 | 293 | 4.8 | 17.7 | 0.00 | 0.74 | 0.00 | 68 | 1010.1 |